Regional Weather Roundup
Issued by NWS

Home | Current Version | Previous Version | Text Only | Print | Product List | Glossary On
Versions: 1 2 3 4 5 6 7 8 9 10 11 12 13 14 15 16 17 18 19 20 21 22 23 24 25 26 27
000
ASUS44 KBMX 242110
RWRAL

ALABAMA REGIONAL WEATHER ROUNDUP
NATIONAL WEATHER SERVICE BIRMINGHAM AL
400 PM CDT THU MAY 24 2018

NOTE: "FAIR" INDICATES FEW OR NO CLOUDS BELOW 12,000 FEET
WITH NO SIGNIFICANT WEATHER AND/OR OBSTRUCTIONS TO VISIBILITY.

THE REMARK "TC" DENOTES TEMPERATURE IN DEGREES CELSIUS.

ALZ001>011-014-016>018-020-242200-
NORTH ALABAMA

CITY           SKY/WX    TMP DP  RH WIND       PRES   REMARKS
MUSCLE SHOALS  FAIR      92  60  34 VRB6      30.03F HX  91
HUNTSVILLE     FAIR      92  61  35 VRB6      30.03F HX  92
DECATUR        FAIR      89  61  38 CALM      30.03F
HALEYVILLE       N/A    N/A N/A N/A MISG        N/A
GADSDEN        FAIR      84  73  69 W6        30.02F HX  90
$$

ALZ012-013-022-023-030>036-040>044-242200-
WEST CENTRAL ALABAMA

CITY           SKY/WX    TMP DP  RH WIND       PRES   REMARKS
TUSCALOOSA     CLOUDY    77  70  79 S8        30.05R THUNDER
DEMOPOLIS      LGT RAIN  78  66  68 E8G21     30.06R
$$

ALZ015-024>026-033>036-041>044-242200-
CENTRAL ALABAMA

CITY           SKY/WX    TMP DP  RH WIND       PRES   REMARKS
BIRMINGHAM     PTSUNNY   82  69  64 CALM      30.05F
MONTGOMERY       N/A     74  71  91 SW6       30.05R
SHELBY CO ARPT LGT RAIN  72  69  90 S3        30.04F
MAXWELL AFB    NOT AVBL
GREENVILLE     NOT AVBL
SELMA          RAIN      75  68  78 W6        30.06F
PRATTVILLE     NOT AVBL
BESSEMER       FAIR      73  68  84 S3        30.05F
TALLADEGA      NOT AVBL
PELL CITY      PTCLDY    79  75  89 SE6       30.03S
MARION         NOT AVBL
SYLACAUGA      NOT AVBL
$$

ALZ019-021-028-029-037-038-045>048-242200-
EAST CENTRAL ALABAMA

CITY           SKY/WX    TMP DP  RH WIND       PRES   REMARKS
ANNISTON       FAIR      86  70  58 VRB3      30.02F HX  90
ALEXANDER CITY NOT AVBL
AUBURN         FAIR      80  71  74 NW3       30.06F
$$

ALZ051>064-242200-
SOUTHWEST ALABAMA

CITY           SKY/WX    TMP DP  RH WIND       PRES   REMARKS
MOBILE         NOT AVBL
BROOKLEY FIELD FAIR      83  72  69 SW3       30.02F
EVERGREEN      FAIR      78  67  68 N7        30.04S
$$

ALZ049-050-065>069-242200-
SOUTHEAST ALABAMA

CITY           SKY/WX    TMP DP  RH WIND       PRES   REMARKS
DOTHAN         LGT RAIN  87  69  54 E5        30.02F HX  91
OZARK          NOT AVBL
TROY           FAIR      81  70  69 NW10      30.04S
EUFAULA        NOT AVBL
$$




USA.gov is the U.S. government's official web portal to all federal, state and local government web resources and services.